[[[{"header":{"parameterUnit":"kt","parameterCategory":2,"dx":1,"dy":1,"la1":30.253999710083008,"la2":30.299108505249023,"lo1":-89.0895004272461,"lo2":-89.04439544677734,"nx":28,"ny":28,"refTime":"2022-10-15T21:00:00:Z","depth":"0","parameterNumber":2,"parameterNumberName":"U-component_of_CURRENTS"},"data":[0.2612,0.2472,0.2402,0.2125,0.1987,0.1715,0.1593,0.1449,0.1372,0.1244,0.1199,0.1257,0.1197,0.1122,0.1093,0.1178,0.1033,0.0964,0.096,0.125,0.1299,0.1346,0.1201,0.0865,0.0864,0.0455,0.0449,0.0445,0.2663,0.2585,0.2476,0.2282,0.2118,0.2081,0.1899,0.1763,0.1623,0.1579,0.154,0.1583,0.1717,0.1909,0.2053,0.1956,0.2046,0.1839,0.1628,0.1671,0.2245,0.2132,0.1989,0.199,0.199,0.199,0.199,0.1991,0.2766,0.2688,0.2592,0.2445,0.2323,0.2173,0.2035,0.1951,0.1836,0.1696,0.1786,0.1763,0.1924,0.2303,0.2478,0.2551,0.2566,0.25,0.2345,0.2271,0.2151,0.2748,0.2803,0.2804,0.2805,0.2806,0.2807,0,0.2811,0.2778,0.2687,0.2554,0.2443,0.231,0.2179,0.2116,0.2001,0.1948,0.1891,0.191,0.2132,0.2282,0.2577,0.2761,0.2653,0.291,0.2665,0.2327,0.2152,0.2172,0.2831,0.2869,0.2871,0.2872,0.2873,0.2873,0.2905,0.2833,0.2705,0.2631,0.257,0.2441,0.2335,0.2236,0.2136,0.2051,0.2005,0.2078,0.2091,0.2391,0.2611,0.2874,0.2747,0.294,0.2928,0.2652,0.2518,0.2406,0.2392,0.2891,0.2888,0.2887,0.2885,0,0.2958,0.2911,0.2772,0.2649,0.2605,0.2505,0.2359,0.2247,0.2187,0.2075,0.207,0.2065,0.2193,0.2351,0.2605,0.2726,0.2785,0.2991,0.2865,0.2896,0.2714,0.2555,0.2393,0.2369,0.3107,0.3106,0.3106,0,0.305,0.2933,0.287,0.2791,0.2643,0.256,0.2398,0.2303,0.2207,0.2106,0.2113,0.2086,0.2259,0.2372,0.2556,0.2753,0.2787,0.2914,0.2966,0.2879,0.2868,0.2709,0.2551,0.3,0.2998,0.2997,0.2996,0,0.3195,0.3012,0.2896,0.2836,0.2681,0.2594,0.2506,0.2359,0.227,0.2186,0.2164,0.2176,0.2236,0.2393,0.258,0.2597,0.2799,0.2851,0.2937,0.2937,0.2923,0.2918,0.2672,0.2994,0.2994,0.2993,0.2993,0,0.3267,0.3183,0.301,0.2872,0.2821,0.271,0.2536,0.2417,0.2302,0.2267,0.2235,0.2266,0.2287,0.2388,0.2549,0.2516,0.2667,0.2772,0.2782,0.2774,0.2838,0.2893,0.2851,0.2605,0.2924,0.2923,0.2922,0,0.3452,0.3274,0.3219,0.3025,0.2927,0.287,0.2734,0.262,0.2548,0.2455,0.2468,0.2407,0.2464,0.2474,0.2517,0.2632,0.2687,0.2618,0.287,0.2877,0.2836,0.2795,0.2701,0.2834,0.2905,0.2906,0.2908,0,0.3586,0.346,0.3424,0.3359,0.3217,0.3133,0.2978,0.2836,0.2755,0.2679,0.259,0.2507,0.2564,0.2533,0.256,0.2603,0.2665,0.2698,0.2705,0.2773,0.2837,0.2782,0.2789,0.2725,0.2725,0.2726,0.2894,0,0.3704,0.3606,0.3543,0.3405,0.3325,0.322,0.3138,0.3048,0.3017,0.2958,0.2853,0.2819,0.275,0.2737,0.2734,0.2702,0.2764,0.2801,0.2843,0.2796,0.2877,0.2887,0.2801,0.2803,0.2805,0.2806,0,0,0.3867,0.374,0.3712,0.3604,0.3535,0.3523,0.3405,0.3328,0.3194,0.3138,0.3164,0.3017,0.2976,0.2856,0.2828,0.2806,0.2877,0.28,0.2808,0.2807,0.2807,0.2882,0.2889,0.2809,0.281,0.281,0.2811,0,0.3894,0.3851,0.3759,0.3688,0.3601,0.3548,0.3527,0.3424,0.3372,0.3229,0.3233,0.3177,0.303,0.2984,0.2948,0.2835,0.2916,0.2836,0.2754,0.282,0.2817,0.2815,0.2887,0.2893,0.2815,0.2815,0.2815,0,0.3987,0.3929,0.3885,0.3767,0.3709,0.3603,0.3642,0.3551,0.3455,0.3456,0.3294,0.3275,0.3219,0.3092,0.3042,0.3058,0.2963,0.2941,0.2933,0.293,0.3002,0.2998,0.2994,0.3049,0.305,0.305,0,0,0.401,0.3935,0.3856,0.377,0.3735,0.3672,0.3622,0.3588,0.3504,0.3464,0.3389,0.3326,0.3255,0.3194,0.3125,0.2999,0.3061,0.2966,0.2955,0.2946,0.2938,0.3007,0.3002,0.3052,0.3052,0.3052,0,0,0.402,0.393,0.3926,0.382,0.3745,0.3652,0.3593,0.3581,0.3481,0.3483,0.3432,0.3407,0.3294,0.3268,0.3294,0.3137,0.3191,0.3181,0.3123,0.3109,0.3098,0.3105,0.3311,0,0,0,0,0,0.4023,0.3945,0.3943,0.392,0.3773,0.3659,0.3637,0.3587,0.3615,0.3555,0.349,0.3495,0.3275,0.3296,0.3269,0.3215,0.3073,0.3069,0.3065,0.2964,0.295,0.2938,0,0,0,0,0,0,0.4013,0.3984,0.3945,0.3855,0.3822,0.3662,0.3689,0.3671,0.3618,0.3615,0.3506,0.3491,0.3446,0.3308,0.3284,0.3233,0.3318,0.3071,0.3068,0.3065,0.2959,0.2947,0.2938,0,0,0,0,0,0.4006,0.3982,0.3764,0.3854,0.3826,0.3747,0.369,0.3676,0.3624,0.3543,0.3527,0.3593,0.3446,0.3423,0.3294,0.3245,0.3334,0.3326,0.3069,0.3067,0.3064,0.2953,0,0,0,0,0,0,0.4,0.3954,0.3756,0.3746,0.3881,0.3752,0.3731,0.3681,0.3553,0.3537,0.3628,0.3628,0.3445,0.3428,0.341,0.325,0.3347,0.3339,0.3333,0.3067,0.3065,0.3064,0,0,0,0,0,0,0.3967,0.3945,0.375,0.3786,0.3779,0.3758,0.3739,0.3643,0.3552,0.3643,0.364,0.363,0.3481,0.343,0.3417,0.3267,0.3357,0.3349,0.3343,0.3339,0.3066,0.3064,0,0,0,0,0,0,0.3956,0.3937,0.3788,0.3783,0.3776,0.3647,0.3672,0.3525,0.3583,0.3648,0.3588,0.359,0.3485,0.3469,0.3421,0.3278,0.327,0.3357,0.3351,0.3347,0.3345,0,0,0,0,0,0,0,0.3948,0.4089,0.3829,0.3779,0.3774,0.365,0.3646,0.3642,0.3583,0.3585,0.3587,0.3589,0.3405,0.3396,0.3387,0.3287,0,0,0.3358,0.3354,0,0,0,0,0,0,0,0,0.4096,0.4091,0.3828,0.3827,0.3825,0.3649,0.3646,0.3643,0.3584,0.3585,0.3587,0.3589,0.3403,0.3395,0.3388,0,0,0,0,0,0,0,0,0,0,0,0,0,0,0,0.3828,0.3827,0,0.3649,0.3646,0.3643,0.3584,0.3585,0.3587,0.3588,0.3401,0.3395,0.3388,0,0,0,0,0,0,0,0,0,0,0,0,0,0,0,0,0,0,0,0,0,0,0,0,0,0,0,0,0,0,0,0,0,0,0,0,0,0,0,0,0,0,0,0,0,0,0,0,0,0,0,0,0,0,0,0,0,0,0,0,0,0,0,0,0,0,0,0,0]}],[{"header":{"parameterUnit":"kt","parameterCategory":2,"dx":1,"dy":1,"la1":30.253999710083008,"la2":30.299108505249023,"lo1":-89.0895004272461,"lo2":-89.04439544677734,"nx":28,"ny":28,"refTime":"2022-10-15T21:00:00:Z","depth":"0","parameterNumber":3,"parameterNumberName":"V-component_of_CURRENTS"},"data":[0.0047,-0.0044,-0.0075,-0.0151,-0.0174,-0.023,-0.0237,-0.0255,-0.025,-0.0273,-0.0271,-0.0236,0.002,0.0479,0.0699,0.0714,0.0763,0.0772,0.0796,0.0662,0.0646,0.0632,0.0633,0.0783,0.0783,0.0943,0.0945,0.0946,0.0101,0.0047,0.0012,-0.0061,-0.0079,-0.0069,-0.0049,-0.0073,-0.0088,-0.0049,-0.0045,0.0036,0.0189,0.0329,0.0496,0.0531,0.0529,0.0568,0.0592,0.0597,0.0427,0.0422,0.0529,0.0529,0.0529,0.0529,0.0529,0.0529,0.0156,0.0128,0.0036,-0.0006,-0.0013,-0.0012,-0.0014,0.0005,0.0037,0.0067,0.0138,0.0153,0.0304,0.0344,0.035,0.0437,0.0403,0.0387,0.0419,0.0438,0.0461,0.027,0.0356,0.0356,0.0356,0.0356,0.0356,0,0.0134,0.01,0.0066,0.0006,-0.0003,0.0008,0.0028,0.0062,0.0119,0.0171,0.0224,0.027,0.0366,0.0374,0.0392,0.0335,0.037,0.0305,0.0353,0.032,0.0352,0.0339,0.0105,0.0232,0.0231,0.0231,0.023,0.023,0.0052,0.006,-0.0,-0.0023,-0.0043,-0.0007,0.001,0.0064,0.0104,0.0223,0.0254,0.0364,0.0395,0.0423,0.0377,0.0319,0.0306,0.0287,0.0183,0.023,0.023,0.0245,0.0255,0.0219,0.0221,0.0222,0.0223,0,-0.0013,-0.0068,-0.0051,-0.0083,-0.0083,-0.0041,-0.0011,0.0049,0.0127,0.0207,0.0242,0.0346,0.0378,0.0369,0.0323,0.0254,0.0244,0.0172,0.0185,0.0158,0.0161,0.0181,0.0361,0.0388,0.0173,0.0174,0.0175,0,-0.016,-0.0117,-0.0209,-0.0191,-0.0133,-0.0134,-0.0032,0.0014,0.0091,0.0149,0.0215,0.027,0.0254,0.0272,0.0174,0.0136,0.0152,0.0019,-0.0009,-0.0013,-0.0014,-0.0005,0.0009,-0.0005,-0.0006,-0.0006,-0.0007,0,-0.0282,-0.0283,-0.0257,-0.0252,-0.0251,-0.02,-0.0171,-0.0085,-0.0036,0.0084,0.0126,0.0193,0.0213,0.0169,0.0086,0.0028,0.0076,-0.0021,-0.0049,-0.005,-0.0067,-0.0072,0.0127,-0.0008,-0.0008,-0.0008,-0.0008,0,-0.0404,-0.0431,-0.0389,-0.0369,-0.0356,-0.0313,-0.0207,-0.0156,-0.0063,-0.004,0.0021,0.001,0.0073,-0.0037,-0.0025,-0.006,-0.0121,-0.0169,-0.0169,-0.0193,-0.029,-0.0218,-0.0072,-0.0027,-0.0212,-0.0213,-0.0214,0,-0.0511,-0.0505,-0.0537,-0.0469,-0.0454,-0.0463,-0.0391,-0.0347,-0.0313,-0.0237,-0.0227,-0.0173,-0.025,-0.0235,-0.0218,-0.0266,-0.0234,-0.0284,-0.0334,-0.0334,-0.0319,-0.0178,-0.0167,-0.0099,-0.0234,-0.0232,-0.023,0,-0.0588,-0.0656,-0.0641,-0.0629,-0.0635,-0.0628,-0.0557,-0.0501,-0.0438,-0.044,-0.0346,-0.0321,-0.0348,-0.0337,-0.0367,-0.0348,-0.0271,-0.043,-0.0433,-0.0395,-0.0229,-0.021,-0.0195,-0.0321,-0.0319,-0.0317,-0.0246,0,-0.067,-0.069,-0.0691,-0.0696,-0.0695,-0.0684,-0.069,-0.0666,-0.067,-0.0663,-0.0592,-0.0619,-0.0582,-0.0573,-0.0607,-0.0505,-0.0544,-0.0602,-0.0645,-0.0554,-0.0539,-0.0526,-0.0719,-0.0721,-0.0724,-0.0726,0,0,-0.0704,-0.0741,-0.0811,-0.0805,-0.0801,-0.0858,-0.0826,-0.0825,-0.0848,-0.0816,-0.086,-0.0811,-0.0823,-0.0724,-0.0697,-0.072,-0.0729,-0.0703,-0.0609,-0.0595,-0.0583,-0.0563,-0.0548,-0.073,-0.0731,-0.0731,-0.0732,0,-0.0729,-0.0807,-0.0813,-0.0828,-0.0867,-0.0886,-0.0883,-0.0926,-0.0921,-0.0896,-0.0927,-0.0903,-0.089,-0.0863,-0.0849,-0.076,-0.079,-0.0758,-0.0646,-0.0629,-0.0613,-0.0598,-0.0575,-0.056,-0.0738,-0.0738,-0.0737,0,-0.0751,-0.0806,-0.0829,-0.09,-0.0929,-0.0919,-0.0984,-0.1005,-0.0972,-0.1046,-0.1003,-0.1022,-0.1028,-0.0973,-0.0953,-0.0977,-0.0853,-0.0898,-0.0887,-0.0872,-0.0859,-0.084,-0.0823,-0.1039,-0.1039,-0.104,0,0,-0.0758,-0.0799,-0.0866,-0.091,-0.0925,-0.0974,-0.0991,-0.1016,-0.1043,-0.1052,-0.106,-0.1064,-0.1045,-0.1029,-0.1031,-0.0982,-0.0998,-0.0929,-0.0915,-0.0903,-0.0881,-0.0865,-0.0847,-0.1042,-0.1042,-0.1042,0,0,-0.0757,-0.0846,-0.0874,-0.094,-0.0964,-0.1025,-0.1033,-0.1058,-0.1072,-0.1076,-0.1102,-0.1104,-0.1062,-0.1083,-0.1107,-0.1011,-0.1078,-0.1073,-0.0972,-0.0955,-0.0941,-0.0913,-0.1132,0,0,0,0,0,-0.0799,-0.0835,-0.0859,-0.088,-0.0986,-0.1015,-0.1024,-0.1068,-0.1089,-0.1081,-0.1102,-0.1113,-0.1097,-0.112,-0.1119,-0.104,-0.1066,-0.1062,-0.1058,-0.0919,-0.0901,-0.0885,0,0,0,0,0,0,-0.0807,-0.0833,-0.0858,-0.0926,-0.095,-0.1016,-0.1058,-0.107,-0.109,-0.1094,-0.1112,-0.1114,-0.1131,-0.1121,-0.112,-0.1043,-0.1132,-0.1064,-0.1061,-0.1057,-0.0913,-0.0898,-0.0885,0,0,0,0,0,-0.0814,-0.0835,-0.1003,-0.0925,-0.0946,-0.1008,-0.1058,-0.1068,-0.1079,-0.111,-0.1114,-0.111,-0.1131,-0.1131,-0.112,-0.1042,-0.1133,-0.1132,-0.1062,-0.1059,-0.1056,-0.0905,0,0,0,0,0,0,-0.0819,-0.0833,-0.1007,-0.1014,-0.0925,-0.1004,-0.1021,-0.1066,-0.1094,-0.11,-0.1109,-0.1111,-0.1131,-0.1131,-0.1131,-0.1038,-0.1133,-0.1133,-0.1133,-0.106,-0.1057,-0.1055,0,0,0,0,0,0,-0.0822,-0.0838,-0.1011,-0.1009,-0.1016,-0.0999,-0.1015,-0.1012,-0.1091,-0.1089,-0.1094,-0.1109,-0.1114,-0.113,-0.113,-0.1125,-0.1133,-0.1133,-0.1133,-0.1133,-0.1058,-0.1056,0,0,0,0,0,0,-0.0829,-0.0843,-0.1007,-0.1012,-0.1018,-0.1092,-0.0993,-0.1089,-0.1129,-0.1085,-0.113,-0.1131,-0.1112,-0.1114,-0.113,-0.1125,-0.1125,-0.1133,-0.1133,-0.1133,-0.1133,0,0,0,0,0,0,0,-0.0834,-0.0739,-0.0972,-0.1015,-0.102,-0.1075,-0.1076,-0.1077,-0.1129,-0.113,-0.113,-0.1131,-0.1134,-0.1134,-0.1134,-0.1124,0,0,-0.1133,-0.1133,0,0,0,0,0,0,0,0,-0.0733,-0.0738,-0.0972,-0.0974,-0.0975,-0.1075,-0.1076,-0.1077,-0.1129,-0.113,-0.113,-0.113,-0.1134,-0.1134,-0.1134,0,0,0,0,0,0,0,0,0,0,0,0,0,0,0,-0.0973,-0.0974,0,-0.1075,-0.1076,-0.1077,-0.1129,-0.113,-0.113,-0.113,-0.1134,-0.1134,-0.1134,0,0,0,0,0,0,0,0,0,0,0,0,0,0,0,0,0,0,0,0,0,0,0,0,0,0,0,0,0,0,0,0,0,0,0,0,0,0,0,0,0,0,0,0,0,0,0,0,0,0,0,0,0,0,0,0,0,0,0,0,0,0,0,0,0,0,0,0,0]}]],[[{"header":{"parameterUnit":"kt","parameterCategory":2,"dx":1,"dy":1,"la1":30.253999710083008,"la2":30.299108505249023,"lo1":-89.0895004272461,"lo2":-89.04439544677734,"nx":28,"ny":28,"refTime":"2022-10-15T21:00:00:Z","depth":"2","parameterNumber":2,"parameterNumberName":"U-component_of_CURRENTS"},"data":[0.3171,0.3108,0.307,0.2961,0.2956,0.2769,0.2624,0.2201,0.1903,0.1403,0.1079,0.0997,0.0879,0.0586,0.0592,0.0515,0.0994,0.0545,0.1077,0.1485,0.1572,0.1816,0.1568,0,0,0,0,0,0.3191,0.3183,0.3195,0.3132,0.307,0.3115,0.2947,0.2693,0.2374,0.2184,0.1933,0.1389,0.1143,0.116,0.0932,0.0882,0.1107,0.0961,0.1242,0.1331,0.1415,0.1204,0.0512,0.0512,0.0512,0.0513,0,0,0.3225,0.3225,0.3215,0.3201,0.3203,0.3134,0.3018,0.2922,0.2761,0.2512,0.2513,0.216,0.2031,0.163,0.167,0.1693,0.1865,0.1853,0.1902,0.1962,0.1758,0.1557,0.1221,0.1225,0.1229,0.1232,0.1234,0,0.3179,0.3187,0.3199,0.3203,0.3203,0.318,0.3158,0.3101,0.3049,0.2953,0.2799,0.2706,0.2591,0.2336,0.2271,0.2319,0.2671,0.2471,0.3222,0.2619,0.244,0.2428,0.2461,0.2308,0.2318,0.2326,0.2332,0.2336,0.3103,0.3134,0.3157,0.3167,0.3186,0.3203,0.319,0.3178,0.3145,0.3101,0.3079,0.3081,0.2984,0.3024,0.2975,0.3015,0.3337,0.2732,0.2693,0.3218,0.3201,0.3204,0.3205,0.2448,0.2433,0.2422,0.2412,0,0.3048,0.3064,0.3114,0.3136,0.314,0.3172,0.3162,0.3158,0.3178,0.3165,0.3182,0.3203,0.3249,0.3386,0.3622,0.3555,0.3631,0.3577,0.3208,0.3129,0.3287,0.3271,0.3251,0.3236,0.3223,0.3213,0.3204,0,0.2983,0.3027,0.3042,0.3071,0.3105,0.3119,0.3151,0.3173,0.3189,0.3178,0.3248,0.3238,0.3456,0.3537,0.3685,0.3636,0.3888,0.3618,0.3594,0.3363,0.3301,0.3979,0.3961,0.4128,0.4127,0.4127,0.4126,0,0.2914,0.297,0.3018,0.3032,0.3057,0.3086,0.31,0.313,0.3134,0.3204,0.3208,0.3343,0.3396,0.3577,0.3673,0.37,0.3884,0.3936,0.3634,0.3603,0.3375,0.3311,0.4126,0.4126,0.4125,0.4125,0.4125,0,0.2868,0.2891,0.2965,0.2984,0.3,0.3036,0.306,0.3092,0.3139,0.3161,0.3231,0.3267,0.3393,0.342,0.3634,0.3583,0.3687,0.3766,0.3771,0.3363,0.3292,0.3036,0.3034,0.3772,0.3769,0.3767,0.3765,0,0.2782,0.2855,0.2861,0.2926,0.2962,0.2963,0.2995,0.3029,0.3055,0.3104,0.3174,0.3245,0.3273,0.3318,0.3426,0.3531,0.3625,0.3538,0.3695,0.3697,0.3255,0.3315,0.302,0.3026,0.3735,0.3738,0.374,0,0.2715,0.2758,0.2774,0.2801,0.2846,0.2859,0.2911,0.295,0.2982,0.3054,0.311,0.3222,0.3249,0.3287,0.3327,0.3428,0.3565,0.3454,0.3459,0.343,0.3766,0.3326,0.3304,0.3632,0.3637,0.364,0.3716,0,0.2653,0.2697,0.2719,0.2774,0.2792,0.2831,0.2852,0.2888,0.2925,0.2946,0.3049,0.3098,0.317,0.322,0.3226,0.3369,0.3353,0.3374,0.331,0.343,0.3444,0.3463,0.3225,0.3225,0.3224,0.3223,0,0,0.2591,0.2633,0.2634,0.268,0.2701,0.2715,0.2763,0.2781,0.2836,0.2861,0.2872,0.3007,0.3041,0.3126,0.3176,0.3198,0.324,0.3167,0.3375,0.3392,0.3407,0.3427,0.3446,0.3222,0.3222,0.3222,0.3222,0,0.2559,0.2578,0.262,0.2638,0.2684,0.2683,0.2713,0.2744,0.277,0.2833,0.2859,0.2934,0.2995,0.3029,0.3055,0.3177,0.3172,0.3221,0.3254,0.3366,0.3383,0.3399,0.3421,0.3438,0.322,0.322,0.322,0,0.2521,0.254,0.2555,0.2591,0.2608,0.264,0.2634,0.2675,0.2711,0.2701,0.2774,0.2814,0.2853,0.2923,0.2966,0.2936,0.3101,0.3041,0.3048,0.3042,0.3155,0.3176,0.3194,0.2944,0.2943,0.2942,0,0,0.2509,0.2533,0.2554,0.2587,0.2603,0.2621,0.2639,0.2655,0.268,0.2699,0.2721,0.2771,0.282,0.2846,0.2884,0.2943,0.2964,0.3003,0.3016,0.3027,0.3026,0.3141,0.3162,0.2937,0.2936,0.2936,0,0,0.2493,0.2515,0.2534,0.2569,0.259,0.2584,0.2609,0.2629,0.2667,0.2689,0.2684,0.269,0.2778,0.2786,0.2718,0.287,0.2826,0.2839,0.2831,0.2847,0.286,0.2843,0.2667,0,0,0,0,0,0.2484,0.251,0.2528,0.2537,0.2564,0.2578,0.258,0.2595,0.262,0.264,0.2672,0.265,0.2762,0.2699,0.2703,0.276,0.287,0.2882,0.2893,0.29,0.2918,0.2932,0,0,0,0,0,0,0.2487,0.2496,0.2526,0.2522,0.253,0.2576,0.2565,0.2568,0.2618,0.2621,0.2645,0.2648,0.2628,0.2696,0.2699,0.2754,0.2666,0.2874,0.2884,0.2894,0.2906,0.292,0.2933,0,0,0,0,0,0.249,0.2497,0.2546,0.2521,0.2527,0.2551,0.2565,0.2568,0.2613,0.2602,0.2608,0.2633,0.2626,0.2632,0.2698,0.2754,0.2663,0.2665,0.2881,0.2889,0.2896,0.2913,0,0,0,0,0,0,0.2492,0.2484,0.2547,0.2549,0.2531,0.255,0.2555,0.2568,0.2591,0.2597,0.2585,0.2586,0.2625,0.263,0.2635,0.2756,0.2661,0.2662,0.2663,0.2887,0.2893,0.2899,0,0,0,0,0,0,0.2481,0.2485,0.2548,0.2559,0.2562,0.2549,0.2553,0.2566,0.2592,0.2571,0.2574,0.2585,0.2635,0.2628,0.2632,0.265,0.2659,0.2661,0.2662,0.2662,0.2892,0.2897,0,0,0,0,0,0,0.2482,0.2486,0.2558,0.2561,0.2563,0.2579,0.2561,0.2596,0.2583,0.257,0.2586,0.2587,0.2634,0.2637,0.263,0.2646,0.2649,0.2659,0.266,0.2661,0.2661,0,0,0,0,0,0,0,0.2484,0.246,0.2545,0.2562,0.2564,0.2567,0.2567,0.2567,0.2584,0.2585,0.2586,0.2587,0.2651,0.2652,0.2654,0.2643,0,0,0.2659,0.266,0,0,0,0,0,0,0,0,0.2458,0.2459,0.2545,0.2546,0.2546,0.2567,0.2567,0.2567,0.2584,0.2585,0.2586,0.2586,0.2651,0.2653,0.2654,0,0,0,0,0,0,0,0,0,0,0,0,0,0,0,0.2545,0.2546,0,0.2567,0.2567,0.2567,0.2584,0.2585,0.2585,0.2586,0.2652,0.2653,0.2654,0,0,0,0,0,0,0,0,0,0,0,0,0,0,0,0,0,0,0,0,0,0,0,0,0,0,0,0,0,0,0,0,0,0,0,0,0,0,0,0,0,0,0,0,0,0,0,0,0,0,0,0,0,0,0,0,0,0,0,0,0,0,0,0,0,0,0,0,0]}],[{"header":{"parameterUnit":"kt","parameterCategory":2,"dx":1,"dy":1,"la1":30.253999710083008,"la2":30.299108505249023,"lo1":-89.0895004272461,"lo2":-89.04439544677734,"nx":28,"ny":28,"refTime":"2022-10-15T21:00:00:Z","depth":"2","parameterNumber":3,"parameterNumberName":"V-component_of_CURRENTS"},"data":[-0.0229,-0.0276,-0.0328,-0.0386,-0.0467,-0.0523,-0.0488,-0.0324,-0.0171,0.0094,0.026,0.047,0.0579,0.0457,0.0406,0.0308,0.0309,0.029,0.0493,0.0368,0.0371,0.037,0.0293,0,0,0,0,0,-0.0265,-0.0332,-0.0395,-0.0466,-0.0499,-0.0577,-0.0518,-0.0438,-0.022,-0.0033,0.0194,0.0362,0.0515,0.0599,0.0448,0.0417,0.0349,0.0424,0.0315,0.0319,0.0323,0.0269,0.0279,0.0279,0.0279,0.0278,0,0,-0.0324,-0.0357,-0.0419,-0.0492,-0.0547,-0.0562,-0.0536,-0.0453,-0.0315,-0.0112,0.006,0.0335,0.043,0.061,0.0634,0.0563,0.0585,0.0519,0.0515,0.0514,0.0474,0.0441,0.0536,0.0537,0.0538,0.0539,0.054,0,-0.0345,-0.0403,-0.0414,-0.0501,-0.0546,-0.0559,-0.0563,-0.052,-0.0441,-0.0315,-0.0059,0.0131,0.036,0.0505,0.0615,0.0659,0.0541,0.0575,0.066,0.0349,0.0309,0.0344,0.034,0.0388,0.0388,0.0388,0.0388,0.0389,-0.0368,-0.0396,-0.045,-0.048,-0.0496,-0.053,-0.0538,-0.0511,-0.0473,-0.0306,-0.0244,-0.0039,0.0168,0.0464,0.0503,0.0623,0.0646,0.058,0.0471,0.0491,0.053,0.0521,0.0512,0.0393,0.0392,0.0392,0.0391,0,-0.038,-0.0381,-0.0401,-0.041,-0.0426,-0.0457,-0.0452,-0.0441,-0.0415,-0.0348,-0.0342,-0.017,0.003,0.0157,0.0343,0.0355,0.0496,0.0542,0.0423,0.0455,0.0505,0.0498,0.0596,0.0599,0.0601,0.0602,0.0603,0,-0.0347,-0.036,-0.0358,-0.0366,-0.0396,-0.0369,-0.0394,-0.0383,-0.0341,-0.0294,-0.0263,-0.0167,-0.008,0.0068,0.0142,0.0307,0.0316,0.0357,0.0407,0.0312,0.0308,0.0359,0.0359,0.0351,0.035,0.0349,0.0349,0,-0.0314,-0.0301,-0.0316,-0.0311,-0.0276,-0.0304,-0.03,-0.027,-0.025,-0.023,-0.0208,-0.0145,-0.0085,-0.0018,0.0131,0.0089,0.0308,0.029,0.0373,0.0377,0.0349,0.0349,0.0348,0.0347,0.0347,0.0347,0.0347,0,-0.0257,-0.0242,-0.0255,-0.0234,-0.0237,-0.0244,-0.0242,-0.0224,-0.0178,-0.0178,-0.0163,-0.0114,-0.0049,-0.0054,0.0087,0.0048,0.0103,0.0184,0.0191,0.0264,0.0326,0.0319,0.0303,0.0296,0.0295,0.0294,0.0293,0,-0.0232,-0.022,-0.0186,-0.0198,-0.0197,-0.0176,-0.0163,-0.0143,-0.0135,-0.0116,-0.0066,-0.0034,-0.003,-0.0025,0.0008,0.0135,0.015,0.0104,0.0271,0.0276,0.0304,0.0296,0.0198,0.0289,0.0282,0.0283,0.0284,0,-0.0202,-0.0153,-0.0166,-0.0171,-0.0146,-0.0123,-0.0126,-0.0096,-0.0103,-0.0097,-0.0085,-0.0019,-0.0021,0.0029,0.0085,0.0121,0.0138,0.0143,0.0149,0.0179,0.0239,0.0276,0.0288,0.0164,0.0165,0.0165,0.0275,0,-0.0153,-0.015,-0.0148,-0.0127,-0.0108,-0.0107,-0.0065,-0.0077,-0.0096,-0.0059,-0.0044,0.003,0.0079,0.01,0.0147,0.0173,0.0191,0.0228,0.0256,0.0229,0.0283,0.0289,0.0238,0.0239,0.0241,0.0242,0,0,-0.0163,-0.0125,-0.0085,-0.0076,-0.0066,-0.0042,-0.0043,-0.001,0.003,0.0032,0.001,0.0103,0.0151,0.0226,0.0213,0.0248,0.0275,0.022,0.024,0.0239,0.0239,0.0288,0.0293,0.0245,0.0245,0.0246,0.0246,0,-0.0121,-0.0102,-0.0095,-0.0067,-0.0045,0.0002,-0.0021,0.0031,0.0032,0.0044,0.0095,0.0113,0.0169,0.0239,0.0283,0.0266,0.0307,0.026,0.0196,0.0251,0.0248,0.0246,0.0293,0.0296,0.025,0.025,0.025,0,-0.0109,-0.0068,-0.0055,0.0008,0.0037,0.0062,0.009,0.0098,0.0109,0.0169,0.0158,0.0198,0.0281,0.0309,0.031,0.0323,0.0342,0.0328,0.0322,0.0314,0.0374,0.037,0.0367,0.0408,0.0409,0.0409,0,0,-0.0094,-0.0071,0.0001,0.0022,0.003,0.0086,0.0105,0.0121,0.0164,0.0168,0.0193,0.0226,0.0281,0.0284,0.0338,0.0353,0.0398,0.0343,0.0336,0.0329,0.0317,0.0375,0.0372,0.0409,0.0409,0.0409,0,0,-0.0074,0.0004,0.0004,0.0041,0.0081,0.0186,0.0183,0.0194,0.0217,0.0185,0.0248,0.0257,0.0257,0.0297,0.0296,0.033,0.0367,0.0368,0.029,0.0282,0.0275,0.0249,0.0344,0,0,0,0,0,-0.0017,-0.0002,-0.0004,0.001,0.0116,0.0187,0.0202,0.0233,0.0203,0.0201,0.0225,0.0244,0.0319,0.032,0.0333,0.0307,0.0414,0.0413,0.0412,0.0318,0.0308,0.03,0,0,0,0,0,0,-0.0011,0.0007,-0.0003,0.01,0.0124,0.0188,0.0208,0.0219,0.0204,0.0201,0.0244,0.0249,0.0307,0.0317,0.0327,0.0302,0.0341,0.0413,0.0413,0.0412,0.0315,0.0307,0.03,0,0,0,0,0,-0.0006,0.0009,0.0158,0.0102,0.0122,0.0174,0.0205,0.0215,0.0193,0.0275,0.0279,0.0201,0.0309,0.0316,0.0323,0.0295,0.0334,0.0338,0.0413,0.0412,0.0412,0.0311,0,0,0,0,0,0,-0.0002,0.0037,0.0164,0.0172,0.0069,0.0169,0.0183,0.021,0.0267,0.0272,0.0241,0.0239,0.0311,0.0316,0.0322,0.0289,0.0328,0.0332,0.0334,0.0413,0.0412,0.0412,0,0,0,0,0,0,0.0029,0.0044,0.0169,0.0126,0.013,0.0164,0.0177,0.0225,0.0265,0.0231,0.0231,0.0239,0.0271,0.0316,0.0321,0.0399,0.0323,0.0327,0.033,0.0331,0.0412,0.0412,0,0,0,0,0,0,0.0036,0.0049,0.0124,0.0128,0.0131,0.0236,0.0206,0.0295,0.0275,0.0227,0.0268,0.0264,0.0269,0.0276,0.032,0.0397,0.0398,0.0324,0.0326,0.0328,0.0329,0,0,0,0,0,0,0,0.0043,-0.0062,0.0105,0.0129,0.0133,0.025,0.0253,0.0257,0.0274,0.0272,0.0269,0.0266,0.0302,0.0306,0.031,0.0395,0,0,0.0323,0.0325,0,0,0,0,0,0,0,0,-0.0066,-0.0063,0.0105,0.0106,0.0107,0.0251,0.0253,0.0256,0.0274,0.0272,0.0269,0.0267,0.0303,0.0307,0.031,0,0,0,0,0,0,0,0,0,0,0,0,0,0,0,0.0105,0.0106,0,0.0251,0.0253,0.0255,0.0274,0.0272,0.027,0.0268,0.0304,0.0307,0.031,0,0,0,0,0,0,0,0,0,0,0,0,0,0,0,0,0,0,0,0,0,0,0,0,0,0,0,0,0,0,0,0,0,0,0,0,0,0,0,0,0,0,0,0,0,0,0,0,0,0,0,0,0,0,0,0,0,0,0,0,0,0,0,0,0,0,0,0,0]}]],[[{"header":{"parameterUnit":"kt","parameterCategory":2,"dx":1,"dy":1,"la1":30.253999710083008,"la2":30.299108505249023,"lo1":-89.0895004272461,"lo2":-89.04439544677734,"nx":28,"ny":28,"refTime":"2022-10-15T21:00:00:Z","depth":"4","parameterNumber":2,"parameterNumberName":"U-component_of_CURRENTS"},"data":[-0.0731,-0.0752,-0.0745,-0.0679,-0.0622,-0.058,-0.0548,-0.0507,-0.0483,-0.0398,-0.0419,-0.0326,-0.0386,-0.0349,-0.0406,-0.0419,-0.0623,-0.0519,-0.0518,-0.0912,-0.0938,-0.096,-0.0595,0,0,0,0,0,-0.0743,-0.0725,-0.0737,-0.0632,-0.0627,-0.0569,-0.051,-0.046,-0.0374,-0.0363,-0.0292,-0.036,-0.0365,-0.0417,-0.0419,-0.0515,-0.0742,-0.052,-0.0856,-0.0928,-0.0956,-0.0591,0,0,0,0,0,0,-0.0763,-0.0751,-0.0739,-0.0636,-0.0585,-0.052,-0.0451,-0.0383,-0.0333,-0.0275,-0.031,-0.0332,-0.0372,-0.0416,-0.0603,-0.0658,-0.0675,-0.0744,-0.078,-0.0808,-0.0489,-0.0198,-0.0352,0,0,0,0,0,-0.0712,-0.0707,-0.0683,-0.0609,-0.0501,-0.0427,-0.0305,-0.0301,-0.0192,-0.017,-0.0187,-0.0189,-0.0354,-0.0483,-0.0628,-0.0852,-0.1051,-0.1098,-0.1115,-0.0978,-0.0797,-0.0886,-0.0874,-0.1063,-0.1067,-0.1069,-0.107,0,-0.0681,-0.0659,-0.0578,-0.0536,-0.0454,-0.0298,-0.0217,-0.0074,-0.0071,-0.0064,-0.0132,-0.0209,-0.0218,-0.0574,-0.0735,-0.1002,-0.1019,-0.117,-0.1023,-0.0838,-0.0926,-0.0906,-0.0886,-0.1093,-0.1091,-0.1089,-0.1087,0,-0.0677,-0.0638,-0.0585,-0.0447,-0.0379,-0.0269,-0.012,-0.0071,0.0021,-0.0008,0.0012,-0.0026,-0.0186,-0.0374,-0.081,-0.0837,-0.1104,-0.1156,-0.1187,-0.1299,-0.0944,-0.0914,-0.113,-0.1122,-0.1115,-0.1109,-0.1104,0,-0.0671,-0.0631,-0.0547,-0.0516,-0.0374,-0.0264,-0.0128,-0.0018,0.0036,0.0039,0.0124,0.0065,-0.0121,-0.0344,-0.0522,-0.0727,-0.0966,-0.0847,-0.0955,-0.1058,-0.1031,-0.1273,-0.1268,-0.1287,-0.1283,-0.128,-0.1278,0,-0.072,-0.0655,-0.0579,-0.0544,-0.043,-0.0302,-0.0191,-0.0057,-0.0007,0.0078,0.0076,0.0051,-0.004,-0.0259,-0.0448,-0.0409,-0.0896,-0.0972,-0.0905,-0.0889,-0.1254,-0.1254,-0.1274,-0.1274,-0.1273,-0.1272,-0.1271,0,-0.0743,-0.0723,-0.0651,-0.0542,-0.0509,-0.0413,-0.0216,-0.0129,-0.0039,0.0038,0.01,0.0078,0.004,0.0027,-0.0291,-0.015,-0.0357,-0.056,-0.0585,-0.0472,-0.0583,-0.0966,-0.0894,-0.0889,-0.0884,-0.088,-0.0876,0,-0.0767,-0.0744,-0.071,-0.0626,-0.0585,-0.0496,-0.0372,-0.0268,-0.0159,-0.0103,-0.0072,-0.003,0.0057,0.008,0.0004,-0.0247,-0.0352,-0.0154,-0.0822,-0.0842,-0.0545,-0.0422,-0.0413,-0.0813,-0.0821,-0.0827,-0.0831,0,-0.0785,-0.0776,-0.0772,-0.0734,-0.0663,-0.0631,-0.0499,-0.038,-0.0317,-0.0216,-0.0144,-0.0017,-0.0037,-0.0057,-0.0092,-0.0211,-0.0274,-0.0305,-0.0327,-0.0432,-0.0707,-0.0389,-0.0397,-0.0388,-0.0393,-0.0397,-0.0787,0,-0.0788,-0.0776,-0.0779,-0.0736,-0.0702,-0.0682,-0.061,-0.0552,-0.0459,-0.0412,-0.0322,-0.0369,-0.0363,-0.0312,-0.0306,-0.0319,-0.0401,-0.0526,-0.0673,-0.0576,-0.0759,-0.0791,-0.052,-0.0528,-0.0534,-0.0539,0,0,-0.0786,-0.077,-0.0781,-0.0774,-0.0737,-0.075,-0.0712,-0.0679,-0.0688,-0.064,-0.0619,-0.0599,-0.0645,-0.0608,-0.0485,-0.0555,-0.0693,-0.0516,-0.06,-0.0604,-0.061,-0.0777,-0.0801,-0.055,-0.0552,-0.0554,-0.0556,0,-0.0775,-0.0766,-0.0772,-0.0766,-0.0778,-0.076,-0.076,-0.0763,-0.0733,-0.0676,-0.0737,-0.0732,-0.0719,-0.0751,-0.0756,-0.0633,-0.0806,-0.059,-0.042,-0.0643,-0.0638,-0.0637,-0.0798,-0.0815,-0.0571,-0.057,-0.0569,0,-0.0754,-0.0753,-0.0755,-0.0755,-0.0773,-0.075,-0.0794,-0.0816,-0.0762,-0.0896,-0.0852,-0.0879,-0.0956,-0.0898,-0.0901,-0.0973,-0.0972,-0.0901,-0.0874,-0.0914,-0.1158,-0.1151,-0.1144,-0.1233,-0.1233,-0.1234,0,0,-0.0744,-0.0744,-0.0745,-0.0752,-0.0755,-0.078,-0.0796,-0.0813,-0.0854,-0.0878,-0.0916,-0.0973,-0.0973,-0.0997,-0.1047,-0.1036,-0.1235,-0.0963,-0.0933,-0.0905,-0.0927,-0.1163,-0.1156,-0.1236,-0.1236,-0.1236,0,0,-0.075,-0.0746,-0.0746,-0.0748,-0.0761,-0.0791,-0.0812,-0.0824,-0.0876,-0.0892,-0.0966,-0.099,-0.0972,-0.1086,-0.1099,-0.1021,-0.1175,-0.1176,-0.0873,-0.0837,-0.0807,-0.0804,-0.1164,0,0,0,0,0,-0.0739,-0.0739,-0.0739,-0.074,-0.0763,-0.0781,-0.0788,-0.0825,-0.084,-0.0851,-0.0909,-0.0964,-0.1093,-0.1106,-0.113,-0.0985,-0.1258,-0.1254,-0.125,-0.0863,-0.0823,-0.079,0,0,0,0,0,0,-0.074,-0.0739,-0.0739,-0.0763,-0.0769,-0.0781,-0.0806,-0.0816,-0.084,-0.0846,-0.0947,-0.0967,-0.1023,-0.11,-0.112,-0.0977,-0.1157,-0.1257,-0.1253,-0.125,-0.0849,-0.0817,-0.0789,0,0,0,0,0,-0.074,-0.074,-0.0761,-0.0765,-0.077,-0.0814,-0.0807,-0.0815,-0.0841,-0.0926,-0.0945,-0.0868,-0.102,-0.1043,-0.1113,-0.0963,-0.1144,-0.1151,-0.1254,-0.1252,-0.1249,-0.0833,0,0,0,0,0,0,-0.0741,-0.0759,-0.0764,-0.0768,-0.0769,-0.0816,-0.0821,-0.0815,-0.0923,-0.0938,-0.0851,-0.0854,-0.1019,-0.1037,-0.1054,-0.0948,-0.1133,-0.1141,-0.1145,-0.1252,-0.125,-0.1248,0,0,0,0,0,0,-0.076,-0.0762,-0.0766,-0.0769,-0.0775,-0.0817,-0.0822,-0.0893,-0.0926,-0.0843,-0.0848,-0.0852,-0.1018,-0.1033,-0.1046,-0.1155,-0.1125,-0.1132,-0.1137,-0.114,-0.1251,-0.1249,0,0,0,0,0,0,-0.0762,-0.0764,-0.0769,-0.0773,-0.0777,-0.083,-0.0886,-0.0924,-0.0873,-0.084,-0.0875,-0.0876,-0.1014,-0.1027,-0.1041,-0.1143,-0.1152,-0.1125,-0.113,-0.1133,-0.1136,0,0,0,0,0,0,0,-0.0764,-0.0732,-0.0735,-0.0776,-0.078,-0.0807,-0.0809,-0.081,-0.0874,-0.0874,-0.0875,-0.0876,-0.1086,-0.1093,-0.1101,-0.1133,0,0,-0.1125,-0.1128,0,0,0,0,0,0,0,0,-0.0732,-0.0732,-0.0735,-0.0736,-0.0737,-0.0807,-0.0809,-0.081,-0.0874,-0.0874,-0.0875,-0.0876,-0.1088,-0.1094,-0.11,0,0,0,0,0,0,0,0,0,0,0,0,0,0,0,-0.0736,-0.0736,0,-0.0808,-0.0809,-0.081,-0.0874,-0.0874,-0.0875,-0.0875,-0.1089,-0.1094,-0.1099,0,0,0,0,0,0,0,0,0,0,0,0,0,0,0,0,0,0,0,0,0,0,0,0,0,0,0,0,0,0,0,0,0,0,0,0,0,0,0,0,0,0,0,0,0,0,0,0,0,0,0,0,0,0,0,0,0,0,0,0,0,0,0,0,0,0,0,0,0]}],[{"header":{"parameterUnit":"kt","parameterCategory":2,"dx":1,"dy":1,"la1":30.253999710083008,"la2":30.299108505249023,"lo1":-89.0895004272461,"lo2":-89.04439544677734,"nx":28,"ny":28,"refTime":"2022-10-15T21:00:00:Z","depth":"4","parameterNumber":3,"parameterNumberName":"V-component_of_CURRENTS"},"data":[0.0301,0.039,0.0463,0.0599,0.0706,0.0774,0.0732,0.0593,0.0463,0.0336,0.0249,0.0239,0.008,0.0089,-0.0072,-0.0098,-0.0024,-0.0298,-0.0297,-0.0187,-0.0183,-0.0179,-0.0182,0,0,0,0,0,0.0364,0.0394,0.0528,0.0668,0.0828,0.0918,0.0824,0.0754,0.058,0.0396,0.0379,0.0167,0.0029,-0.0125,-0.0108,-0.0248,-0.0202,-0.0234,-0.0135,-0.0185,-0.018,-0.0184,0,0,0,0,0,0,0.0437,0.0455,0.0625,0.0797,0.0935,0.0915,0.0906,0.0774,0.0681,0.0439,0.0286,0.0108,-0.0022,-0.0126,-0.0236,-0.0236,-0.0177,-0.0117,-0.0117,-0.0113,-0.0107,0.0052,-0.012,0,0,0,0,0,0.0475,0.0597,0.0659,0.0874,0.0987,0.0993,0.1018,0.0916,0.0792,0.0761,0.0447,0.0321,0.0046,-0.0122,-0.0158,-0.0222,-0.022,-0.0242,-0.0236,-0.0141,-0.002,-0.0027,-0.001,-0.0163,-0.0163,-0.0162,-0.0162,0,0.0536,0.0599,0.078,0.086,0.0979,0.1069,0.1098,0.1095,0.0985,0.0756,0.0592,0.04,0.0254,-0.0057,-0.0189,-0.024,-0.0233,-0.0232,-0.0132,-0.0011,-0.0023,-0.0006,0.001,-0.0158,-0.0159,-0.0159,-0.0159,0,0.0565,0.0661,0.0741,0.0867,0.0923,0.0975,0.1042,0.0998,0.1,0.0832,0.0823,0.0586,0.0375,0.0237,-0.0003,-0.0018,-0.0168,-0.0181,-0.0031,-0.0049,0.0008,0.0023,-0.0153,-0.0154,-0.0155,-0.0156,-0.0157,0,0.061,0.0659,0.0783,0.0844,0.0899,0.0926,0.0965,0.0973,0.0909,0.0784,0.0782,0.06,0.0467,0.027,0.0236,0.0073,0.0009,0.0038,0.0007,0.0089,0.0104,0.0056,0.0069,-0.0056,-0.0056,-0.0056,-0.0056,0,0.0616,0.0685,0.075,0.0781,0.0835,0.0895,0.0932,0.089,0.0846,0.0797,0.0755,0.0595,0.0505,0.041,0.0287,0.0347,0.0028,0.0059,0.005,0.0055,0.0062,0.0075,-0.0056,-0.0056,-0.0056,-0.0056,-0.0056,0,0.065,0.0689,0.0756,0.0784,0.0792,0.0863,0.085,0.0855,0.0776,0.0787,0.072,0.0661,0.0507,0.0562,0.0338,0.0407,0.0395,0.0295,0.029,0.0254,0.0264,0.0361,0.0296,0.0299,0.0301,0.0303,0.0305,0,0.0659,0.0701,0.0735,0.0786,0.0804,0.0846,0.0848,0.0839,0.0855,0.0818,0.0704,0.066,0.0698,0.069,0.0581,0.0423,0.0383,0.0453,0.0309,0.0306,0.03,0.0223,0.0351,0.0335,0.0331,0.0328,0.0326,0,0.0641,0.0711,0.0731,0.0758,0.0825,0.0809,0.0843,0.0827,0.0813,0.0879,0.081,0.0731,0.0738,0.0676,0.0609,0.05,0.0434,0.0545,0.0537,0.0548,0.0272,0.0267,0.0249,0.0374,0.0369,0.0365,0.0347,0,0.0666,0.072,0.0726,0.0778,0.0771,0.0811,0.082,0.0863,0.0933,0.0929,0.087,0.0826,0.0772,0.0726,0.0718,0.0568,0.0629,0.0569,0.0559,0.0519,0.0529,0.0513,0.07,0.07,0.0699,0.0699,0,0,0.0676,0.0711,0.0711,0.073,0.0746,0.0781,0.0798,0.0804,0.0862,0.085,0.0934,0.085,0.0815,0.0646,0.0671,0.0659,0.0657,0.0701,0.0562,0.0547,0.0533,0.0538,0.0523,0.0699,0.0699,0.0698,0.0698,0,0.0673,0.0711,0.0721,0.073,0.0758,0.0764,0.0776,0.0813,0.0828,0.0888,0.0853,0.0813,0.0845,0.074,0.0687,0.067,0.0649,0.0689,0.0697,0.0564,0.055,0.0537,0.0539,0.0526,0.0698,0.0698,0.0698,0,0.0683,0.0703,0.0714,0.0724,0.0729,0.0739,0.0732,0.0753,0.0768,0.0769,0.0838,0.0814,0.0747,0.0733,0.0729,0.0733,0.0651,0.0697,0.0698,0.069,0.0552,0.0537,0.0524,0.0688,0.0688,0.0688,0,0,0.0687,0.0708,0.071,0.0724,0.0726,0.073,0.0726,0.075,0.076,0.0771,0.0801,0.0804,0.0749,0.0755,0.0734,0.0726,0.0681,0.0698,0.0698,0.0699,0.0691,0.0554,0.0541,0.0689,0.0689,0.0689,0,0,0.0677,0.07,0.0727,0.0741,0.0733,0.0714,0.0715,0.0725,0.0743,0.0785,0.0768,0.077,0.0767,0.0758,0.0768,0.0718,0.0714,0.0712,0.0732,0.0732,0.0732,0.0729,0.0738,0,0,0,0,0,0.0692,0.0697,0.0722,0.0726,0.0737,0.0709,0.0705,0.0715,0.0747,0.0739,0.0774,0.0754,0.076,0.077,0.0764,0.0736,0.0694,0.0693,0.0693,0.0714,0.0715,0.0715,0,0,0,0,0,0,0.0694,0.07,0.072,0.0708,0.071,0.0709,0.0733,0.0734,0.0747,0.0752,0.0751,0.0752,0.0743,0.077,0.0766,0.0739,0.0739,0.0694,0.0693,0.0692,0.0714,0.0715,0.0715,0,0,0,0,0,0.0695,0.07,0.0728,0.0707,0.0708,0.0716,0.0735,0.0736,0.0751,0.0737,0.0739,0.0763,0.0742,0.074,0.0767,0.0741,0.0742,0.074,0.0694,0.0693,0.0692,0.0715,0,0,0,0,0,0,0.0696,0.0689,0.0727,0.0726,0.0723,0.0716,0.0719,0.0737,0.0736,0.0738,0.0745,0.0748,0.074,0.0739,0.0738,0.0742,0.0744,0.0742,0.0741,0.0693,0.0693,0.0692,0,0,0,0,0,0,0.0686,0.0688,0.0726,0.0747,0.0748,0.0715,0.0719,0.07,0.0736,0.0745,0.0747,0.0747,0.0749,0.0739,0.0738,0.0706,0.0745,0.0744,0.0743,0.0742,0.0693,0.0692,0,0,0,0,0,0,0.0686,0.0688,0.0747,0.0748,0.0749,0.0736,0.0698,0.0714,0.0744,0.0745,0.0748,0.075,0.0749,0.0748,0.0737,0.0706,0.0706,0.0745,0.0744,0.0744,0.0743,0,0,0,0,0,0,0,0.0686,0.0683,0.0736,0.0749,0.075,0.0716,0.0716,0.0715,0.0744,0.0746,0.0748,0.0749,0.0753,0.0751,0.075,0.0705,0,0,0.0745,0.0745,0,0,0,0,0,0,0,0,0.0681,0.0682,0.0736,0.0736,0.0736,0.0716,0.0716,0.0715,0.0744,0.0746,0.0747,0.0748,0.0752,0.0751,0.075,0,0,0,0,0,0,0,0,0,0,0,0,0,0,0,0.0736,0.0736,0,0.0716,0.0716,0.0715,0.0744,0.0746,0.0747,0.0748,0.0752,0.0751,0.075,0,0,0,0,0,0,0,0,0,0,0,0,0,0,0,0,0,0,0,0,0,0,0,0,0,0,0,0,0,0,0,0,0,0,0,0,0,0,0,0,0,0,0,0,0,0,0,0,0,0,0,0,0,0,0,0,0,0,0,0,0,0,0,0,0,0,0,0,0]}]]]